Location: Unspecified
(0.0000°N, 0.0000°E)
Time: 19:01:57
(UTC+01:00)

Ariane H10 - Visible Passes

Search period start: 06 December 2016 00:00
Search period end: 16 December 2016 00:00
Orbit: 467 x 34791 km, 7.3° (Epoch: 06 December)

Date Brightness Start Highest point End Pass type
(mag) Time Alt. Az. Time Alt. Az. Time Alt. Az.
06 Dec 7.8 23:13:23 10° W 00:50:26 36° W 08:34:49 10° ESE visible
07 Dec 8.7 19:17:14 10° W 20:11:47 80° NNE 04:59:03 10° ESE visible
08 Dec 7.3 15:39:35 10° W 23:27:39 56° E 01:13:44 10° E visible
09 Dec 7.8 23:14:03 10° W 00:49:29 34° W 08:33:55 10° ESE visible
10 Dec 8.6 19:16:32 10° W 20:20:07 81° NNE 04:58:13 10° ESE visible
11 Dec 7.4 15:38:40 10° W 23:26:47 58° E 01:13:26 10° E visible
12 Dec 10.3 23:14:46 10° W 00:48:26 32° W 04:43:54 10° W visible
13 Dec 8.6 19:15:46 10° W 22:18:59 86° NNW 04:57:18 10° ESE visible
14 Dec 7.4 15:37:41 10° W 23:25:48 60° E 01:13:02 10° E visible
